Location: Chanteloup
(48.9761°N, 2.0326°E)
Time: 05:39:24
(UTC+00:00)

Daily predictions for brighter satellites

Satellite Brightness Start Highest point End
(mag) Time Altitude Azimuth Time Altitude Azimuth Time Altitude Azimuth
SL-19 R/B 4.2 00:07:24 58° WNW 00:07:24 58° WNW 00:10:17 10° NNW
Cosmos 2322 Rocket 2.1 00:05:15 39° SW 00:07:28 83° WNW 00:13:07 10° NNE
Okean 1-7 3.5 00:06:47 42° WSW 00:07:48 51° WNW 00:12:07 10° N
Cosmos 923 Rocket 4.3 00:03:40 10° NNW 00:08:52 55° WSW 00:10:11 43° SSW
Cosmos 1818 3.8 00:03:53 10° NW 00:09:22 70° NE 00:12:49 23° SE
Cosmos 1242 Rocket 3.8 00:06:59 10° N 00:10:19 34° ENE 00:11:04 30° E
USA 267 3.9 00:10:32 31° SW 00:11:26 32° SW 00:17:13 10° WNW
ALOS 2 3.9 00:11:03 25° WSW 00:11:37 26° W 00:15:18 10° NW
ATLAS CENTAUR R/B 2.5 00:07:46 10° NNW 00:12:34 50° NE 00:16:20 15° ESE
Cosmos 1782 Rocket 3.8 00:13:26 10° NNW 00:17:40 51° W 00:18:18 46° SW
ERS-2 3.9 00:16:48 10° N 00:19:44 23° WNW 00:20:41 21° W
Okean 2 Rocket 3.7 00:15:36 10° N 00:20:01 52° ENE 00:21:36 35° SE
Cosmos 372 Rocket 4.2 00:19:41 42° SSE 00:21:04 56° ESE 00:26:06 10° NNE
ADEOS Rocket 3.4 00:20:35 34° SW 00:22:12 42° W 00:27:40 10° NNW
Cosmos 1953 4.2 00:21:53 10° NNE 00:25:14 24° ENE 00:27:21 16° ESE
Cosmos 1844 Rocket 2.8 00:20:16 10° NW 00:25:44 56° WSW 00:27:18 42° SSW
Cosmos 1844 3.8 00:21:08 10° NNW 00:26:54 65° WSW 00:28:56 40° S
Cosmos 2237 4.4 00:26:11 32° SW 00:28:53 65° WNW 00:34:36 10° NNE
Meteor 1-21 4.4 00:26:51 37° SSE 00:29:09 69° E 00:34:57 10° NNE
Cosmos 2112 Rocket 4.2 00:24:28 10° NNW 00:29:43 56° WSW 00:31:09 42° SSW
Cosmos 1937 Rocket 3.4 00:29:41 43° SSW 00:31:26 89° WNW 00:36:45 10° NNE
Cosmos 1758 3.3 00:28:42 10° N 00:32:40 72° E 00:33:27 54° SE
Cosmos 1680 Rocket 4.0 00:28:00 10° NNW 00:33:05 46° WSW 00:34:17 39° SW
Sich 1 Rocket 3.5 00:30:18 10° N 00:34:43 89° ENE 00:35:49 51° S
Resurs 1-4 Rocket 3.7 00:32:20 10° NE 00:36:38 25° E 00:39:18 17° SE
Cosmos 1674 2.9 00:36:19 50° SE 00:36:47 54° E 00:40:27 10° NNE
Cosmos 1470 3.1 00:33:13 10° NNW 00:36:59 48° W 00:37:14 47° WSW
SL-08 ROCKET BODY 4.4 00:32:48 10° NNW 00:38:40 65° W 00:40:57 37° SSW
CZ-4C R/B 3.3 00:32:22 10° NW 00:39:19 66° NE 00:47:37 10° SE
Okean 2 3.4 00:39:06 53° SSE 00:39:54 69° E 00:43:58 10° NNE
Cosmos 2219 Rocket 2.5 00:39:12 36° SSE 00:41:10 54° ESE 00:46:37 10° NE
Cosmos 1707 2.6 00:40:54 62° SW 00:41:27 75° W 00:45:21 10° N
SL-16 R/B 3.3 00:38:30 18° WSW 00:42:12 39° NW 00:47:32 10° NNE
NOSS 3-1 (C) 4.0 00:36:51 10° NW 00:44:12 89° NE 00:52:56 10° SE
Cosmos 1437 Rocket 3.9 00:41:28 10° N 00:44:59 35° ENE 00:46:36 24° ESE
Cosmos 1726 4.1 00:42:55 10° NW 00:45:19 17° W 00:45:19 17° W
Cosmos 1300 Rocket 3.9 00:41:17 10° NNW 00:45:27 48° W 00:46:12 43° SW
COSMOS 2428 3.4 00:44:03 30° SSE 00:46:12 43° ESE 00:51:34 10° NE
ATLAS 3B R/B 3.6 00:40:01 10° NW 00:46:34 36° WSW 00:48:51 30° SSW
ASTEX 1 3.6 00:42:37 10° N 00:47:25 58° W 00:49:02 39° SW
Cosmos 1898 Rocket 4.1 00:48:35 28° WSW 00:51:06 49° WNW 00:56:17 10° NNE
MOZ.5/SAFIR/RUBIN 5/SL-8 3.8 00:53:59 34° SSE 00:56:01 81° ENE 01:00:46 10° NNW
Cosmos 1626 2.0 00:55:39 60° SSE 00:56:13 77° E 00:59:54 10° NNE
S3M 4.2 00:54:26 28° SSE 00:57:53 66° E 01:04:13 10° NNE
Cosmos 2237 Rocket 3.9 00:57:20 15° SE 01:00:23 22° E 01:04:40 10° NE
Cosmos 2333 4.2 01:01:59 34° SW 01:04:33 78° WNW 01:10:13 10° NNE
KORONAS-FOTON 3.8 01:03:59 53° SW 01:04:39 66° WNW 01:08:26 10° N
ADEOS II 3.8 01:00:54 10° NE 01:05:05 24° E 01:08:46 12° SE
Cosmos 1553 Rocket 4.0 01:02:58 33° SSW 01:05:51 74° W 01:12:02 10° N
Cosmos 1300 3.8 01:06:12 10° N 01:09:49 40° ENE 01:11:51 22° SE
Cosmos 1386 Rocket 4.3 01:04:47 10° N 01:10:50 81° W 01:14:06 29° S
Cosmos 405 Rocket 2.7 01:10:48 48° SSE 01:11:40 69° E 01:15:23 10° NNE
Cosmos 2221 Rocket 3.7 01:10:51 40° SW 01:12:15 63° WNW 01:16:39 10° N
Okean 1 Rocket 3.0 01:10:24 10° N 01:14:49 83° E 01:16:47 33° SSE
IDEFIX/ARIANE 42P 4.3 01:12:31 10° NE 01:16:49 25° E 01:20:54 11° SE
USA 215 4.3 01:10:51 10° ENE 01:16:59 45° N 01:23:09 10° WNW
Cosmos 2360 Rocket 3.0 01:13:36 21° WSW 01:17:02 42° NW 01:22:25 10° NNE
Cosmos 1238 Rocket 2.9 01:14:38 10° NNW 01:17:10 37° WNW 01:17:10 37° WNW
ATLAS 5 CENTAUR R/B 3.1 01:05:07 10° NW 01:17:32 59° WSW 01:19:49 28° S
Cosmos 1461 2.9 01:15:26 10° NW 01:19:35 81° NE 01:23:29 12° SE
Cosmos 1908 3.5 01:16:16 10° NNW 01:19:56 49° W 01:20:34 43° SW
Meteor 2-10 Rocket 4.3 01:16:27 10° N 01:22:09 57° ENE 01:27:14 12° SSE
Cosmos 2278 Rocket 2.4 01:21:39 10° NNW 01:27:22 73° ENE 01:33:01 10° SE
CZ-2D R/B 2.4 01:22:03 10° NNE 01:27:27 62° ESE 01:30:34 25° S
Cosmos 1048 Rocket 3.9 01:28:15 10° NNW 01:33:26 68° WSW 01:36:29 24° S
Cosmos 1867 3.7 01:30:59 29° SSW 01:33:41 63° ESE 01:39:07 10° NE
Gblst 52 Del rocket 4.1 01:30:00 20° WSW 01:34:10 84° SSE 01:39:43 10° ENE
SME Rocket 3.1 01:32:57 37° SSW 01:34:15 57° WSW 01:38:40 10° NNW
Cosmos 2333 Rocket 2.7 01:33:18 23° WSW 01:36:41 51° NW 01:42:13 10° NNE
Cosmos 1745 Rocket 4.3 01:34:06 10° NNW 01:40:09 53° W 01:43:37 25° SSW
Cosmos 1125 Rocket 3.7 01:37:42 27° S 01:40:32 66° ESE 01:45:43 10° NNE
SL-16 R/B 2.5 01:37:47 15° SSE 01:43:07 87° WSW 01:49:25 10° NNW
Thor Agena Rocket 3.9 01:38:01 10° N 01:43:09 55° WNW 01:46:03 25° SW
YAOGAN 11 4.2 01:39:55 17° SSE 01:43:13 76° ENE 01:47:42 10° NNW
SL-16 R/B 4.4 01:40:01 10° SE 01:43:28 17° E 01:46:56 10° ENE
Cosmos 2322 4.0 01:40:26 24° SW 01:43:49 59° WNW 01:49:31 10° NNE
Cosmos 1943 Rocket 3.9 01:38:55 10° NNW 01:44:05 34° NE 01:49:12 10° ESE
Cosmos 1242 Rocket 4.3 01:42:10 10° NW 01:44:43 18° W 01:44:51 18° W
Cosmos 1674 Rocket 4.2 01:43:30 28° SW 01:45:15 42° WNW 01:49:24 10° N
EO 1 Del DPAF 4.5 01:43:21 10° NNE 01:46:33 31° E 01:48:39 17° SSE
Cosmos 2298 Rocket 4.1 01:45:28 26° SSW 01:48:30 78° ESE 01:53:50 10° NNE
USA 290 2.4 01:48:51 39° WSW 01:49:46 58° WNW 01:52:58 10° NNE
Cosmos 1980 4.1 01:46:55 21° S 01:50:30 55° ESE 01:56:01 10° NE
ATLAS CENTAUR R/B 2.5 01:46:57 10° NW 01:51:12 30° WSW 01:52:17 27° SW
Cosmos 2322 Rocket 4.2 01:48:18 10° W 01:52:24 20° NW 01:56:30 10° N
Cosmos 494 Rocket 4.2 01:51:15 10° NNW 01:56:10 48° WSW 01:59:08 22° S
AQUA 4.0 01:51:37 10° NNE 01:56:24 72° ESE 01:59:33 21° S
USA 229 DEB 3.9 01:49:48 10° NW 01:57:08 75° SW 02:04:57 10° SSE
USA 229 3.9 01:49:54 10° NW 01:57:14 76° SW 02:05:02 10° SSE
SL-14 R/B 3.6 01:56:23 29° SW 01:58:02 50° WNW 02:01:51 10° N
OE (NEXTSAT) 4.5 01:57:23 35° SW 01:58:14 45° S 02:01:25 10° ESE
Cosmos 1455 Rocket 3.1 01:54:52 10° N 01:59:22 85° E 02:03:00 15° S
Cosmos 1953 3.3 01:58:00 10° NNW 02:01:36 32° W 02:02:56 25° SW
GP-B 3.7 01:58:24 10° N 02:02:37 42° W 02:04:48 24° SW
NOSS 2-2 (C) 4.2 01:59:30 10° NW 02:04:29 72° SW 02:11:33 10° SSE
Helios 1A 3.0 02:02:52 12° SSE 02:06:45 83° ENE 02:11:00 10° NNW
Cosmos 371 Rocket 3.3 02:04:37 23° SSW 02:07:39 84° WNW 02:12:33 10° NNE
NPP 3.7 02:03:54 10° NNE 02:09:18 74° WNW 02:13:05 20° SSW
UNK 3.8 02:07:23 19° S 02:10:32 57° W 02:15:05 10° NNW
CZ-4 R/B 4.1 02:08:24 10° N 02:12:59 52° WNW 02:15:54 21° SW
Meteor 1-28 Rocket 3.1 02:10:52 16° S 02:13:45 79° WSW 02:17:31 10° NNW
Cosmos 1975 Rocket 3.0 02:11:29 21° SSW 02:14:26 84° W 02:18:55 10° N
USA 306 4.2 02:13:37 18° S 02:15:45 26° SE 02:19:16 10° ENE
USA 307 4.4 02:13:44 16° S 02:15:53 24° SE 02:19:16 10° E
Resurs 1-4 Rocket 2.4 02:11:38 10° N 02:16:45 53° WNW 02:20:23 19° SW
Cosmos 1437 Rocket 4.3 02:18:12 10° NW 02:20:55 19° W 02:21:54 17° WSW
Cosmos 2315 Rocket 4.3 02:18:05 18° SSW 02:22:44 55° WNW 02:29:00 10° N
SAR-Lupe-2 3.8 02:19:30 10° N 02:23:02 55° WNW 02:25:09 22° SW
NOSS 3-1 (A) 4.3 02:16:27 10° NW 02:23:39 49° WSW 02:31:58 10° S
Helios 1B rocket 4.3 02:21:01 10° NE 02:24:27 26° E 02:27:51 10° SSE
Cosmos 2074 Rocket 4.1 02:18:14 10° N 02:24:34 85° E 02:30:53 10° S
Cosmos 2219 Rocket 3.4 02:20:54 12° WSW 02:25:24 31° NW 02:30:23 10° NNE
NOSS 0 Rocket 4.1 02:22:49 18° SW 02:27:38 72° WNW 02:33:55 10° NNE
CZ-4C R/B 3.4 02:21:04 10° NW 02:27:54 42° WSW 02:35:42 10° S
MOS 1 Rocket 3.4 02:26:10 17° SSW 02:29:16 45° W 02:33:24 10° NNW
COSMOS 2428 3.6 02:26:02 14° WSW 02:30:32 38° NW 02:35:51 10° NNE
Cosmos 2184 Rocket 4.0 02:26:07 10° N 02:32:28 88° W 02:38:41 10° S
Cosmos 304 Rocket 3.8 02:30:28 17° SSW 02:34:10 77° WNW 02:39:01 10° NNE
Cosmos 1269 Rocket 4.0 02:31:23 10° NNW 02:36:42 84° WSW 02:41:59 10° SSE
Cosmos 1455 2.1 02:37:27 10° N 02:41:10 90° W 02:44:52 10° S
Cosmos 2237 Rocket 2.3 02:39:10 15° SW 02:43:54 69° WNW 02:49:38 10° NNE
Cosmos 1544 Rocket 3.6 02:40:24 10° NNW 02:44:49 63° W 02:49:10 10° S
Cosmos 1300 4.4 02:42:32 10° NW 02:45:03 17° W 02:46:40 14° WSW
ADEOS II 2.4 02:39:58 10° N 02:45:07 56° WNW 02:49:42 13° SW
Cosmos 1025 Rocket 3.4 02:41:57 15° SSW 02:45:22 50° WNW 02:49:36 10° N
BREEZE-M DEB (TANK) 3.8 02:34:12 10° WSW 02:45:31 87° S 02:48:58 10° E
USA 308 3.8 02:42:41 14° SSW 02:45:48 37° SE 02:49:42 10° ENE
Lacrosse 5 3.4 02:48:42 10° S 02:52:55 27° SE 02:57:08 10° ENE
Cosmos 2297 4.0 02:47:19 10° NNW 02:53:06 76° ENE 02:58:51 10° SSE
IDEFIX/ARIANE 42P 2.9 02:51:33 10° N 02:56:42 54° WNW 03:01:42 11° SW
Cosmos 614 Rocket 4.4 02:51:42 10° NNW 02:56:52 68° ENE 03:02:03 10° SSE
USA 215 4.2 02:53:05 10° E 02:59:22 52° NNE 03:05:41 10° WNW
CZ-2D R/B 3.6 03:02:47 10° N 03:07:05 24° WNW 03:11:19 10° WSW
Cosmos 332 Rocket 4.3 03:02:46 11° SW 03:07:12 48° WNW 03:11:52 10° NNE
Cosmos 2278 Rocket 3.5 03:06:45 10° NW 03:10:51 21° W 03:14:56 10° SSW
USA 305 3.0 03:09:06 10° SW 03:13:11 65° SSE 03:17:21 10° ENE
Meteor 2-5 Rocket 4.5 03:10:16 10° SW 03:15:43 40° WNW 03:21:06 10° N
ERBS 2.7 03:14:17 10° SSW 03:17:13 47° SE 03:20:13 10° ENE
Meteor 1-24 Rocket 4.3 03:13:37 10° SW 03:19:01 42° WNW 03:24:17 10° N
Cosmos 2333 Rocket 4.4 03:19:19 10° WNW 03:22:23 15° NNW 03:25:28 10° N
Nadezhda 1 Rocket 4.2 03:16:53 10° SSW 03:23:13 67° WNW 03:29:33 10° N
FENGYUN 3A 3.9 03:18:55 10° NNE 03:24:19 74° ESE 03:29:41 10° S
Cosmos 2341 Rocket 4.2 03:18:39 10° N 03:25:04 82° E 03:31:28 10° S
SL-16 R/B 2.3 03:21:08 10° SSW 03:26:48 87° WNW 03:32:31 10° NNE
